Location: Newark
(44.1667°N, 8.2500°E)
Time: 01:26:54
(UTC+00:00)

Transit 4A - Pass Details

Date: 16 December 2019
Orbit: 871 x 973 km, 66.8° (Epoch: 18 January)

Event Time Altitude Azimuth Distance (km) Brightness Sun altitude
Rises 17:35:23 0° 275° (W) 3,575 12.3 -18.2°
Reaches altitude 10° 17:39:22 10° 300° (WNW) 2,611 10.9 -18.9°
Maximum altitude 17:42:25 14° 331° (NNW) 2,314 10.1 -19.4°
Drops below altitude 10° 17:45:28 10° 2° (N) 2,580 10.1 -20.0°
Enters shadow 17:46:53 - 13° (NNE) 2,864 10.2 -20.2°
